| time (UTC) | temp F | wind direction | speed MPH | gust MPH | rain 1hr in | rain 24hr in | rain mn in | humidity % | barometer mb |
| 20260510084502 | 58 | 0 | 0.0 | 0.0 | 0.00 | 0.00 | 0.00 | 76 | 1013.8 |
| 20260510084003 | 58 | 205 | 0.0 | 2.0 | 0.00 | 0.00 | 0.00 | 75 | 1013.8 |
| 20260510083502 | 58 | 205 | 0.0 | 2.0 | 0.00 | 0.00 | 0.00 | 75 | 1013.8 |
| 20260510083002 | 58 | 206 | 0.0 | 1.0 | 0.00 | 0.00 | 0.00 | 74 | 1013.8 |
| 20260510082502 | 58 | 206 | 0.0 | 1.0 | 0.00 | 0.00 | 0.00 | 74 | 1013.8 |
| 20260510082023 | 58 | 210 | 0.0 | 2.0 | 0.00 | 0.00 | 0.00 | 73 | 1013.9 |
| 20260510081502 | 58 | 204 | 0.0 | 2.0 | 0.00 | 0.00 | 0.00 | 72 | 1013.9 |
| 20260510081002 | 59 | 0 | 0.0 | 0.0 | 0.00 | 0.00 | 0.00 | 71 | 1013.9 |
| 20260510080502 | 59 | 0 | 0.0 | 0.0 | 0.00 | 0.00 | 0.00 | 70 | 1013.8 |
| 20260510080023 | 59 | 0 | 0.0 | 0.0 | 0.00 | 0.00 | 0.00 | 70 | 1013.9 |
| 20260510075502 | 59 | 0 | 0.0 | 0.0 | 0.00 | 0.00 | 0.00 | 70 | 1013.9 |
| 20260510075002 | 60 | 0 | 0.0 | 0.0 | 0.00 | 0.00 | 0.00 | 70 | 1013.8 |
| 20260510074502 | 60 | 55 | 0.0 | 1.0 | 0.00 | 0.00 | 0.00 | 69 | 1013.9 |
| 20260510074002 | 60 | 55 | 0.0 | 1.0 | 0.00 | 0.00 | 0.00 | 68 | 1013.9 |
| 20260510073502 | 61 | 0 | 0.0 | 0.0 | 0.00 | 0.00 | 0.00 | 68 | 1013.9 |
| 20260510073002 | 61 | 0 | 0.0 | 0.0 | 0.00 | 0.00 | 0.00 | 67 | 1013.9 |
| 20260510072502 | 61 | 0 | 0.0 | 0.0 | 0.00 | 0.00 | 0.00 | 66 | 1013.9 |
| 20260510072002 | 62 | 0 | 0.0 | 0.0 | 0.00 | 0.00 | 0.00 | 66 | 1013.9 |
| 20260510071524 | 62 | 0 | 0.0 | 0.0 | 0.00 | 0.00 | 0.00 | 65 | 1013.8 |
| 20260510071002 | 62 | 0 | 0.0 | 0.0 | 0.00 | 0.00 | 0.00 | 65 | 1013.8 |
| 20260510070502 | 63 | 0 | 0.0 | 0.0 | 0.00 | 0.00 | 0.00 | 64 | 1013.8 |
| 20260510070002 | 63 | 0 | 0.0 | 0.0 | 0.00 | 0.00 | 0.00 | 63 | 1013.8 |
| 20260510065502 | 63 | 0 | 0.0 | 0.0 | 0.00 | 0.00 | 0.00 | 62 | 1013.8 |
| 20260510065002 | 64 | 0 | 0.0 | 0.0 | 0.00 | 0.00 | 0.00 | 62 | 1013.8 |
| 20260510064502 | 64 | 0 | 0.0 | 0.0 | 0.00 | 0.00 | 0.00 | 61 | 1013.8 |
| 20260510064002 | 64 | 0 | 0.0 | 0.0 | 0.00 | 0.00 | 0.00 | 61 | 1013.7 |
| 20260510063502 | 64 | 0 | 0.0 | 0.0 | 0.00 | 0.00 | 0.00 | 61 | 1013.7 |
| 20260510063002 | 64 | 348 | 0.0 | 2.0 | 0.00 | 0.00 | 0.00 | 60 | 1013.7 |
| 20260510062502 | 64 | 344 | 0.0 | 3.0 | 0.00 | 0.00 | 0.00 | 60 | 1013.7 |
| 20260510062002 | 65 | 347 | 0.0 | 3.0 | 0.00 | 0.00 | 0.00 | 60 | 1013.7 |
| 20260510061502 | 65 | 354 | 0.0 | 3.0 | 0.00 | 0.00 | 0.00 | 60 | 1013.8 |
| 20260510061002 | 65 | 355 | 0.0 | 2.0 | 0.00 | 0.00 | 0.00 | 59 | 1013.7 |
| 20260510060502 | 65 | 339 | 1.0 | 4.0 | 0.00 | 0.00 | 0.00 | 59 | 1013.7 |
| 20260510060002 | 65 | 330 | 1.0 | 4.0 | 0.00 | 0.00 | 0.00 | 59 | 1013.6 |
| 20260510055502 | 65 | 323 | 1.0 | 3.0 | 0.00 | 0.00 | 0.00 | 59 | 1013.7 |
| 20260510055023 | 65 | 324 | 0.0 | 3.0 | 0.00 | 0.00 | 0.00 | 59 | 1013.7 |
| 20260510054502 | 66 | 320 | 0.0 | 3.0 | 0.00 | 0.00 | 0.00 | 59 | 1013.6 |
| 20260510054002 | 66 | 329 | 0.0 | 4.0 | 0.00 | 0.00 | 0.00 | 59 | 1013.5 |
| 20260510053502 | 66 | 341 | 0.0 | 4.0 | 0.00 | 0.00 | 0.00 | 59 | 1013.6 |
| 20260510053002 | 66 | 340 | 1.0 | 5.0 | 0.00 | 0.00 | 0.00 | 58 | 1013.5 |
| 20260510052523 | 66 | 343 | 1.0 | 5.0 | 0.00 | 0.00 | 0.00 | 57 | 1013.5 |
| 20260510052023 | 66 | 340 | 0.0 | 2.0 | 0.00 | 0.00 | 0.00 | 57 | 1013.5 |
| 20260510051523 | 66 | 282 | 0.0 | 1.0 | 0.00 | 0.00 | 0.00 | 57 | 1013.5 |
| 20260510051002 | 67 | 281 | 0.0 | 1.0 | 0.00 | 0.00 | 0.00 | 56 | 1013.6 |
| 20260510050523 | 67 | 0 | 0.0 | 0.0 | 0.00 | 0.00 | 0.00 | 55 | 1013.5 |
| 20260510050002 | 67 | 0 | 0.0 | 0.0 | 0.00 | 0.00 | 0.00 | 56 | 1013.6 |
| 20260510045503 | 67 | 0 | 0.0 | 0.0 | 0.00 | 0.00 | 0.00 | 55 | 1013.6 |
| 20260510045002 | 67 | 0 | 0.0 | 0.0 | 0.00 | 0.00 | 0.00 | 55 | 1013.5 |
| 20260510044502 | 68 | 0 | 0.0 | 0.0 | 0.00 | 0.00 | 0.00 | 54 | 1013.4 |
| 20260510044023 | 68 | 310 | 0.0 | 2.0 | 0.00 | 0.00 | 0.00 | 54 | 1013.4 |
| 20260510043503 | 68 | 312 | 1.0 | 4.0 | 0.00 | 0.00 | 0.00 | 53 | 1013.4 |
| 20260510043023 | 68 | 311 | 1.0 | 4.0 | 0.00 | 0.00 | 0.00 | 53 | 1013.3 |
| 20260510042523 | 68 | 314 | 0.0 | 3.0 | 0.00 | 0.00 | 0.00 | 52 | 1013.2 |
| 20260510042002 | 68 | 326 | 0.0 | 3.0 | 0.00 | 0.00 | 0.00 | 51 | 1013.1 |
| 20260510041502 | 69 | 330 | 0.0 | 3.0 | 0.00 | 0.00 | 0.00 | 51 | 1013.0 |
| 20260510041002 | 69 | 331 | 0.0 | 3.0 | 0.00 | 0.00 | 0.00 | 50 | 1012.9 |
| 20260510040502 | 69 | 0 | 0.0 | 0.0 | 0.00 | 0.00 | 0.00 | 50 | 1012.9 |
| 20260510040002 | 69 | 0 | 0.0 | 0.0 | 0.00 | 0.00 | 0.00 | 49 | 1012.8 |
| 20260510035503 | 70 | 0 | 0.0 | 0.0 | 0.00 | 0.00 | 0.00 | 49 | 1012.9 |
| 20260510035002 | 70 | 0 | 0.0 | 0.0 | 0.00 | 0.00 | 0.00 | 49 | 1012.8 |
| 20260510034502 | 70 | 317 | 0.0 | 2.0 | 0.00 | 0.00 | 0.00 | 48 | 1012.8 |
| 20260510034002 | 70 | 320 | 0.0 | 2.0 | 0.00 | 0.00 | 0.00 | 47 | 1012.7 |
| 20260510033502 | 71 | 330 | 0.0 | 1.0 | 0.00 | 0.00 | 0.00 | 47 | 1012.6 |
| 20260510033023 | 71 | 0 | 0.0 | 0.0 | 0.00 | 0.00 | 0.00 | 46 | 1012.6 |
| 20260510032502 | 71 | 341 | 1.0 | 4.0 | 0.00 | 0.00 | 0.00 | 45 | 1012.6 |
| 20260510032003 | 72 | 334 | 1.0 | 4.0 | 0.00 | 0.00 | 0.00 | 44 | 1012.5 |
| 20260510031502 | 72 | 322 | 1.0 | 3.0 | 0.00 | 0.00 | 0.00 | 43 | 1012.6 |
| 20260510031002 | 73 | 327 | 1.0 | 4.0 | 0.00 | 0.00 | 0.00 | 42 | 1012.6 |
| 20260510030502 | 73 | 329 | 1.0 | 6.0 | 0.00 | 0.00 | 0.00 | 41 | 1012.6 |
| 20260510030002 | 73 | 333 | 1.0 | 6.0 | 0.00 | 0.00 | 0.00 | 41 | 1012.6 |
| 20260510025503 | 74 | 341 | 0.0 | 3.0 | 0.00 | 0.00 | 0.00 | 40 | 1012.6 |
| 20260510025002 | 74 | 335 | 1.0 | 4.0 | 0.00 | 0.00 | 0.00 | 40 | 1012.5 |
| 20260510024502 | 74 | 327 | 1.0 | 4.0 | 0.00 | 0.00 | 0.00 | 40 | 1012.5 |
| 20260510024023 | 74 | 325 | 1.0 | 5.0 | 0.00 | 0.00 | 0.00 | 39 | 1012.5 |
| 20260510023502 | 75 | 330 | 1.0 | 5.0 | 0.00 | 0.00 | 0.00 | 39 | 1012.4 |
| 20260510023002 | 75 | 337 | 1.0 | 5.0 | 0.00 | 0.00 | 0.00 | 39 | 1012.5 |
| 20260510022502 | 75 | 337 | 1.0 | 4.0 | 0.00 | 0.00 | 0.00 | 39 | 1012.4 |
| 20260510022002 | 76 | 333 | 1.0 | 5.0 | 0.00 | 0.00 | 0.00 | 38 | 1012.5 |
| 20260510021502 | 76 | 334 | 2.0 | 6.0 | 0.00 | 0.00 | 0.00 | 38 | 1012.4 |
| 20260510021002 | 76 | 337 | 1.0 | 6.0 | 0.00 | 0.00 | 0.00 | 37 | 1012.5 |
| 20260510020502 | 77 | 325 | 1.0 | 4.0 | 0.00 | 0.00 | 0.00 | 37 | 1012.5 |
| 20260510020024 | 77 | 318 | 1.0 | 4.0 | 0.00 | 0.00 | 0.00 | 36 | 1012.6 |
| 20260510015503 | 78 | 312 | 1.0 | 5.0 | 0.00 | 0.00 | 0.00 | 35 | 1012.6 |
| 20260510015002 | 78 | 310 | 1.0 | 6.0 | 0.00 | 0.00 | 0.00 | 34 | 1012.6 |
| 20260510014502 | 79 | 310 | 2.0 | 6.0 | 0.00 | 0.00 | 0.00 | 32 | 1012.6 |
| 20260510014002 | 80 | 308 | 1.0 | 5.0 | 0.00 | 0.00 | 0.00 | 30 | 1012.7 |
| 20260510013523 | 80 | 311 | 1.0 | 4.0 | 0.00 | 0.00 | 0.00 | 29 | 1012.7 |
| 20260510013003 | 81 | 323 | 0.0 | 3.0 | 0.00 | 0.00 | 0.00 | 28 | 1012.7 |
| 20260510012502 | 81 | 324 | 1.0 | 3.0 | 0.00 | 0.00 | 0.00 | 29 | 1012.8 |
| 20260510012002 | 82 | 320 | 1.0 | 4.0 | 0.00 | 0.00 | 0.00 | 29 | 1012.8 |
| 20260510011502 | 82 | 321 | 1.0 | 4.0 | 0.00 | 0.00 | 0.00 | 29 | 1012.8 |
| 20260510011002 | 82 | 0 | 0.0 | 0.0 | 0.00 | 0.00 | 0.00 | 28 | 1012.8 |
| 20260510010523 | 82 | 0 | 0.0 | 0.0 | 0.00 | 0.00 | 0.00 | 27 | 1012.8 |
| 20260510010023 | 82 | 0 | 0.0 | 0.0 | 0.00 | 0.00 | 0.00 | 27 | 1012.9 |
| 20260510005523 | 82 | 349 | 0.0 | 1.0 | 0.00 | 0.00 | 0.00 | 28 | 1013.0 |
| 20260510005002 | 82 | 347 | 0.0 | 2.0 | 0.00 | 0.00 | 0.00 | 28 | 1013.0 |
| 20260510004523 | 82 | 304 | 0.0 | 4.0 | 0.00 | 0.00 | 0.00 | 27 | 1013.0 |
| 20260510004003 | 82 | 289 | 0.0 | 4.0 | 0.00 | 0.00 | 0.00 | 27 | 1013.0 |
| 20260510003502 | 82 | 99 | 0.0 | 2.0 | 0.00 | 0.00 | 0.00 | 27 | 1013.0 |
| 20260510003003 | 82 | 345 | 1.0 | 5.0 | 0.00 | 0.00 | 0.00 | 26 | 1013.0 |
| 20260510002503 | 82 | 315 | 1.0 | 6.0 | 0.00 | 0.00 | 0.00 | 26 | 1013.1 |
| 20260510002003 | 82 | 297 | 1.0 | 6.0 | 0.00 | 0.00 | 0.00 | 27 | 1013.1 |
| 20260510001502 | 83 | 296 | 1.0 | 4.0 | 0.00 | 0.00 | 0.00 | 28 | 1013.1 |
| 20260510001002 | 83 | 312 | 1.0 | 4.0 | 0.00 | 0.00 | 0.00 | 27 | 1013.2 |
| 20260510000502 | 83 | 310 | 1.0 | 4.0 | 0.00 | 0.00 | 0.00 | 27 | 1013.3 |
| 20260510000003 | 82 | 296 | 1.0 | 3.0 | 0.00 | 0.00 | 0.00 | 27 | 1013.3 |
| 20260509235502 | 82 | 321 | 1.0 | 3.0 | 0.00 | 0.00 | 0.00 | 27 | 1013.3 |
| 20260509235002 | 82 | 329 | 1.0 | 3.0 | 0.00 | 0.00 | 0.00 | 27 | 1013.3 |
| 20260509234502 | 82 | 310 | 0.0 | 3.0 | 0.00 | 0.00 | 0.00 | 28 | 1013.4 |
| 20260509234002 | 82 | 281 | 0.0 | 3.0 | 0.00 | 0.00 | 0.00 | 27 | 1013.5 |
| 20260509233502 | 82 | 274 | 1.0 | 6.0 | 0.00 | 0.00 | 0.00 | 28 | 1013.5 |
| 20260509233003 | 82 | 281 | 1.0 | 6.0 | 0.00 | 0.00 | 0.00 | 29 | 1013.6 |
| 20260509232503 | 82 | 309 | 1.0 | 4.0 | 0.00 | 0.00 | 0.00 | 28 | 1013.6 |
| 20260509232024 | 82 | 331 | 1.0 | 6.0 | 0.00 | 0.00 | 0.00 | 29 | 1013.6 |
| 20260509231503 | 81 | 340 | 1.0 | 6.0 | 0.00 | 0.00 | 0.00 | 28 | 1013.8 |
| 20260509231002 | 81 | 337 | 1.0 | 6.0 | 0.00 | 0.00 | 0.00 | 31 | 1013.8 |
| 20260509230503 | 81 | 331 | 1.0 | 5.0 | 0.00 | 0.00 | 0.00 | 31 | 1013.9 |
| 20260509230003 | 81 | 320 | 1.0 | 5.0 | 0.00 | 0.00 | 0.00 | 32 | 1013.9 |
| 20260509225502 | 81 | 329 | 1.0 | 4.0 | 0.00 | 0.00 | 0.00 | 33 | 1014.0 |
| 20260509225002 | 81 | 330 | 1.0 | 4.0 | 0.00 | 0.00 | 0.00 | 33 | 1014.1 |
| 20260509224524 | 81 | 343 | 2.0 | 5.0 | 0.00 | 0.00 | 0.00 | 34 | 1014.3 |
| 20260509224002 | 81 | 3 | 2.0 | 5.0 | 0.00 | 0.00 | 0.00 | 34 | 1014.3 |
| 20260509223502 | 81 | 339 | 1.0 | 5.0 | 0.00 | 0.00 | 0.00 | 33 | 1014.4 |
| 20260509223002 | 81 | 298 | 2.0 | 6.0 | 0.00 | 0.00 | 0.00 | 34 | 1014.6 |
| 20260509222502 | 81 | 285 | 2.0 | 6.0 | 0.00 | 0.00 | 0.00 | 34 | 1014.7 |
| 20260509222023 | 81 | 287 | 1.0 | 3.0 | 0.00 | 0.00 | 0.00 | 35 | 1014.9 |
| 20260509221524 | 80 | 307 | 1.0 | 4.0 | 0.00 | 0.00 | 0.00 | 36 | 1014.8 |
| 20260509221002 | 80 | 323 | 1.0 | 4.0 | 0.00 | 0.00 | 0.00 | 35 | 1014.9 |
| 20260509220502 | 80 | 332 | 1.0 | 4.0 | 0.00 | 0.00 | 0.00 | 36 | 1015.0 |
| 20260509220003 | 79 | 319 | 2.0 | 4.0 | 0.00 | 0.00 | 0.00 | 36 | 1015.1 |
| 20260509215524 | 79 | 310 | 1.0 | 4.0 | 0.00 | 0.00 | 0.00 | 36 | 1015.1 |
| 20260509215003 | 78 | 334 | 1.0 | 6.0 | 0.00 | 0.00 | 0.00 | 36 | 1015.2 |
| 20260509214502 | 78 | 332 | 1.0 | 6.0 | 0.00 | 0.00 | 0.00 | 37 | 1015.3 |
| 20260509214003 | 78 | 333 | 1.0 | 4.0 | 0.00 | 0.00 | 0.00 | 36 | 1015.3 |
| 20260509213502 | 78 | 324 | 1.0 | 4.0 | 0.00 | 0.00 | 0.00 | 36 | 1015.4 |
| 20260509213003 | 78 | 329 | 1.0 | 4.0 | 0.00 | 0.00 | 0.00 | 37 | 1015.5 |
| 20260509212502 | 78 | 336 | 1.0 | 4.0 | 0.00 | 0.00 | 0.00 | 35 | 1015.5 |
| 20260509212023 | 78 | 326 | 1.0 | 4.0 | 0.00 | 0.00 | 0.00 | 35 | 1015.4 |
| 20260509211523 | 78 | 328 | 1.0 | 3.0 | 0.00 | 0.00 | 0.00 | 36 | 1015.5 |
| 20260509211002 | 77 | 324 | 1.0 | 5.0 | 0.00 | 0.00 | 0.00 | 36 | 1015.5 |
| 20260509210503 | 77 | 300 | 1.0 | 6.0 | 0.00 | 0.00 | 0.00 | 35 | 1015.6 |
| 20260509210023 | 77 | 281 | 1.0 | 6.0 | 0.00 | 0.00 | 0.00 | 35 | 1015.5 |
| 20260509205502 | 77 | 332 | 1.0 | 4.0 | 0.00 | 0.00 | 0.00 | 35 | 1015.5 |
| 20260509205003 | 76 | 349 | 1.0 | 4.0 | 0.00 | 0.00 | 0.00 | 37 | 1015.5 |
| 20260509204502 | 76 | 339 | 1.0 | 6.0 | 0.00 | 0.00 | 0.00 | 36 | 1015.6 |
| 20260509204003 | 76 | 336 | 2.0 | 6.0 | 0.00 | 0.00 | 0.00 | 37 | 1015.6 |
| 20260509203502 | 76 | 322 | 1.0 | 4.0 | 0.00 | 0.00 | 0.00 | 36 | 1015.7 |
| 20260509203002 | 76 | 315 | 1.0 | 4.0 | 0.00 | 0.00 | 0.00 | 39 | 1015.9 |
| 20260509202502 | 76 | 305 | 1.0 | 4.0 | 0.00 | 0.00 | 0.00 | 41 | 1015.9 |
| 20260509202023 | 75 | 298 | 1.0 | 7.0 | 0.00 | 0.00 | 0.00 | 40 | 1015.8 |
| 20260509201502 | 75 | 305 | 1.0 | 7.0 | 0.00 | 0.00 | 0.00 | 41 | 1016.0 |
| 20260509201002 | 74 | 309 | 1.0 | 8.0 | 0.00 | 0.00 | 0.00 | 45 | 1016.1 |
| 20260509200503 | 74 | 313 | 1.0 | 8.0 | 0.00 | 0.00 | 0.00 | 45 | 1016.2 |
| 20260509200024 | 74 | 311 | 1.0 | 5.0 | 0.00 | 0.00 | 0.00 | 45 | 1016.2 |
| 20260509195503 | 74 | 306 | 1.0 | 7.0 | 0.00 | 0.00 | 0.00 | 45 | 1016.3 |
| 20260509195002 | 73 | 331 | 1.0 | 7.0 | 0.00 | 0.00 | 0.00 | 49 | 1016.3 |
| 20260509194504 | 73 | 317 | 1.0 | 6.0 | 0.00 | 0.00 | 0.00 | 50 | 1016.3 |
| 20260509194003 | 73 | 305 | 2.0 | 8.0 | 0.00 | 0.00 | 0.00 | 49 | 1016.4 |
| 20260509193524 | 73 | 305 | 2.0 | 8.0 | 0.00 | 0.00 | 0.00 | 51 | 1016.4 |
| 20260509193003 | 72 | 303 | 1.0 | 7.0 | 0.00 | 0.00 | 0.00 | 51 | 1016.5 |
| 20260509192524 | 72 | 298 | 1.0 | 8.0 | 0.00 | 0.00 | 0.00 | 52 | 1016.5 |
| 20260509192002 | 72 | 291 | 2.0 | 8.0 | 0.00 | 0.00 | 0.00 | 53 | 1016.6 |
| 20260509191502 | 72 | 302 | 1.0 | 6.0 | 0.00 | 0.00 | 0.00 | 52 | 1016.6 |
| 20260509191024 | 72 | 304 | 1.0 | 4.0 | 0.00 | 0.00 | 0.00 | 53 | 1016.7 |
| 20260509190503 | 71 | 317 | 1.0 | 5.0 | 0.00 | 0.00 | 0.00 | 53 | 1016.7 |
| 20260509190003 | 71 | 327 | 2.0 | 5.0 | 0.00 | 0.00 | 0.00 | 54 | 1016.7 |
| 20260509185503 | 71 | 322 | 1.0 | 6.0 | 0.00 | 0.00 | 0.00 | 53 | 1016.9 |
| 20260509185024 | 71 | 311 | 1.0 | 6.0 | 0.00 | 0.00 | 0.00 | 54 | 1017.0 |
| 20260509184503 | 70 | 295 | 1.0 | 5.0 | 0.00 | 0.00 | 0.00 | 56 | 1017.0 |
| 20260509184002 | 70 | 299 | 1.0 | 4.0 | 0.00 | 0.00 | 0.00 | 57 | 1017.1 |
| 20260509183502 | 69 | 311 | 1.0 | 7.0 | 0.00 | 0.00 | 0.00 | 56 | 1017.2 |
| 20260509183003 | 69 | 318 | 1.0 | 7.0 | 0.00 | 0.00 | 0.00 | 59 | 1017.2 |
| 20260509182503 | 68 | 310 | 1.0 | 7.0 | 0.00 | 0.00 | 0.00 | 59 | 1017.3 |
| 20260509182002 | 68 | 321 | 1.0 | 6.0 | 0.00 | 0.00 | 0.00 | 59 | 1017.4 |
| 20260509181502 | 68 | 339 | 1.0 | 6.0 | 0.00 | 0.00 | 0.00 | 61 | 1017.3 |
| 20260509181003 | 67 | 333 | 0.0 | 5.0 | 0.00 | 0.00 | 0.00 | 62 | 1017.3 |
| 20260509180502 | 67 | 330 | 1.0 | 8.0 | 0.00 | 0.00 | 0.00 | 61 | 1017.4 |
| 20260509180024 | 66 | 323 | 2.0 | 8.0 | 0.00 | 0.00 | 0.00 | 63 | 1017.5 |
| 20260509175503 | 66 | 320 | 1.0 | 6.0 | 0.00 | 0.00 | 0.00 | 62 | 1017.4 |
| 20260509175002 | 66 | 325 | 1.0 | 6.0 | 0.00 | 0.00 | 0.00 | 64 | 1017.5 |
| 20260509174502 | 65 | 315 | 1.0 | 4.0 | 0.00 | 0.00 | 0.00 | 65 | 1017.5 |
| 20260509174023 | 65 | 331 | 2.0 | 4.0 | 0.00 | 0.00 | 0.00 | 66 | 1017.5 |
| 20260509173503 | 64 | 342 | 1.0 | 4.0 | 0.00 | 0.00 | 0.00 | 66 | 1017.6 |
| 20260509173002 | 64 | 340 | 1.0 | 4.0 | 0.00 | 0.00 | 0.00 | 67 | 1017.7 |
| 20260509172503 | 64 | 336 | 1.0 | 5.0 | 0.00 | 0.00 | 0.00 | 67 | 1017.8 |
| 20260509172002 | 64 | 325 | 1.0 | 5.0 | 0.00 | 0.00 | 0.00 | 68 | 1017.8 |
| 20260509171502 | 63 | 321 | 1.0 | 5.0 | 0.00 | 0.00 | 0.00 | 68 | 1018.0 |
| 20260509171024 | 63 | 331 | 1.0 | 3.0 | 0.00 | 0.00 | 0.00 | 69 | 1018.0 |
| 20260509170503 | 63 | 342 | 1.0 | 3.0 | 0.00 | 0.00 | 0.00 | 68 | 1018.2 |
| 20260509170003 | 63 | 20 | 1.0 | 6.0 | 0.00 | 0.00 | 0.00 | 70 | 1018.1 |
| 20260509165524 | 62 | 40 | 0.0 | 6.0 | 0.00 | 0.00 | 0.00 | 70 | 1018.2 |
| 20260509165003 | 62 | 17 | 0.0 | 3.0 | 0.00 | 0.00 | 0.00 | 72 | 1018.3 |
| 20260509164503 | 61 | 9 | 1.0 | 3.0 | 0.00 | 0.00 | 0.00 | 73 | 1018.3 |
| 20260509164024 | 60 | 350 | 1.0 | 4.0 | 0.00 | 0.00 | 0.00 | 75 | 1018.4 |
| 20260509163503 | 60 | 352 | 1.0 | 5.0 | 0.00 | 0.00 | 0.00 | 76 | 1018.4 |
| 20260509163003 | 59 | 347 | 1.0 | 5.0 | 0.00 | 0.00 | 0.00 | 77 | 1018.5 |
| 20260509162504 | 58 | 337 | 1.0 | 8.0 | 0.00 | 0.00 | 0.00 | 78 | 1018.7 |
| 20260509162003 | 58 | 336 | 2.0 | 8.0 | 0.00 | 0.00 | 0.00 | 78 | 1018.8 |
| 20260509161524 | 58 | 337 | 2.0 | 8.0 | 0.00 | 0.00 | 0.00 | 79 | 1018.8 |
| 20260509161002 | 57 | 340 | 2.0 | 5.0 | 0.00 | 0.00 | 0.00 | 79 | 1018.8 |
| 20260509160524 | 57 | 344 | 2.0 | 8.0 | 0.00 | 0.00 | 0.00 | 81 | 1018.8 |
| 20260509160024 | 56 | 342 | 2.0 | 8.0 | 0.00 | 0.00 | 0.00 | 81 | 1018.9 |
| 20260509155503 | 56 | 332 | 1.0 | 6.0 | 0.00 | 0.00 | 0.00 | 81 | 1018.8 |
| 20260509155004 | 56 | 329 | 1.0 | 4.0 | 0.00 | 0.00 | 0.00 | 82 | 1018.8 |
| 20260509154524 | 56 | 334 | 1.0 | 4.0 | 0.00 | 0.00 | 0.00 | 82 | 1018.8 |
| 20260509154003 | 55 | 1 | 0.0 | 3.0 | 0.00 | 0.00 | 0.00 | 84 | 1018.8 |
| 20260509153503 | 55 | 335 | 1.0 | 4.0 | 0.00 | 0.00 | 0.00 | 85 | 1018.9 |
| 20260509153004 | 54 | 343 | 1.0 | 5.0 | 0.00 | 0.00 | 0.00 | 86 | 1019.0 |
| 20260509152504 | 54 | 348 | 1.0 | 7.0 | 0.00 | 0.00 | 0.00 | 87 | 1019.2 |
| 20260509152004 | 53 | 335 | 1.0 | 7.0 | 0.00 | 0.00 | 0.00 | 87 | 1019.2 |
| 20260509151503 | 53 | 334 | 1.0 | 5.0 | 0.00 | 0.00 | 0.00 | 88 | 1019.2 |
| 20260509151003 | 53 | 331 | 2.0 | 8.0 | 0.00 | 0.00 | 0.00 | 89 | 1019.3 |
| 20260509150524 | 52 | 332 | 1.0 | 8.0 | 0.00 | 0.00 | 0.00 | 89 | 1019.4 |
| 20260509150003 | 52 | 333 | 1.0 | 5.0 | 0.00 | 0.00 | 0.00 | 89 | 1019.4 |
| 20260509145502 | 52 | 331 | 1.0 | 7.0 | 0.00 | 0.00 | 0.00 | 89 | 1019.4 |
| 20260509145024 | 52 | 332 | 1.0 | 7.0 | 0.00 | 0.00 | 0.00 | 90 | 1019.3 |
| 20260509144503 | 52 | 336 | 1.0 | 4.0 | 0.00 | 0.00 | 0.00 | 90 | 1019.2 |
| 20260509144002 | 51 | 335 | 1.0 | 4.0 | 0.00 | 0.00 | 0.00 | 91 | 1019.2 |
| 20260509143503 | 51 | 327 | 1.0 | 6.0 | 0.00 | 0.00 | 0.00 | 91 | 1019.2 |
| 20260509143003 | 51 | 325 | 1.0 | 6.0 | 0.00 | 0.00 | 0.00 | 92 | 1019.2 |
| 20260509142503 | 51 | 333 | 0.0 | 4.0 | 0.00 | 0.00 | 0.00 | 92 | 1019.3 |
| 20260509142024 | 50 | 328 | 1.0 | 4.0 | 0.00 | 0.00 | 0.00 | 92 | 1019.3 |
| 20260509141524 | 50 | 330 | 1.0 | 4.0 | 0.00 | 0.00 | 0.00 | 92 | 1019.3 |
| 20260509141003 | 50 | 330 | 1.0 | 5.0 | 0.00 | 0.00 | 0.00 | 92 | 1019.2 |
| 20260509140524 | 50 | 326 | 1.0 | 5.0 | 0.00 | 0.00 | 0.00 | 93 | 1019.2 |
| 20260509140003 | 50 | 326 | 0.0 | 5.0 | 0.00 | 0.00 | 0.00 | 93 | 1019.1 |
| 20260509135524 | 50 | 338 | 0.0 | 3.0 | 0.00 | 0.00 | 0.00 | 93 | 1019.2 |
| 20260509135024 | 49 | 338 | 0.0 | 3.0 | 0.00 | 0.00 | 0.00 | 92 | 1019.2 |
| 20260509134503 | 49 | 0 | 0.0 | 0.0 | 0.00 | 0.00 | 0.00 | 92 | 1019.0 |
| 20260509134002 | 49 | 0 | 0.0 | 0.0 | 0.00 | 0.00 | 0.00 | 92 | 1019.0 |
| 20260509133524 | 49 | 0 | 0.0 | 0.0 | 0.00 | 0.00 | 0.00 | 92 | 1018.9 |
| 20260509133003 | 49 | 0 | 0.0 | 0.0 | 0.00 | 0.00 | 0.00 | 92 | 1018.9 |
| 20260509132502 | 49 | 0 | 0.0 | 0.0 | 0.00 | 0.00 | 0.00 | 92 | 1019.0 |
| 20260509132003 | 49 | 0 | 0.0 | 0.0 | 0.00 | 0.00 | 0.00 | 92 | 1019.0 |
| 20260509131503 | 49 | 345 | 0.0 | 1.0 | 0.00 | 0.00 | 0.00 | 91 | 1019.0 |
| 20260509131003 | 49 | 345 | 0.0 | 1.0 | 0.00 | 0.00 | 0.00 | 91 | 1019.0 |
| 20260509130503 | 49 | 0 | 0.0 | 0.0 | 0.00 | 0.00 | 0.00 | 91 | 1019.0 |
| 20260509130003 | 49 | 0 | 0.0 | 0.0 | 0.00 | 0.00 | 0.00 | 90 | 1018.8 |
| 20260509125503 | 49 | 0 | 0.0 | 0.0 | 0.00 | 0.00 | 0.00 | 90 | 1018.8 |
| 20260509125003 | 49 | 0 | 0.0 | 0.0 | 0.00 | 0.00 | 0.00 | 90 | 1018.8 |
| 20260509124503 | 49 | 0 | 0.0 | 0.0 | 0.00 | 0.00 | 0.00 | 90 | 1018.9 |
| 20260509124003 | 49 | 0 | 0.0 | 0.0 | 0.00 | 0.00 | 0.00 | 90 | 1019.1 |
| 20260509123503 | 50 | 0 | 0.0 | 0.0 | 0.00 | 0.00 | 0.00 | 90 | 1019.2 |
| 20260509123003 | 50 | 0 | 0.0 | 0.0 | 0.00 | 0.00 | 0.00 | 90 | 1019.1 |
| 20260509122524 | 50 | 0 | 0.0 | 0.0 | 0.00 | 0.00 | 0.00 | 90 | 1019.1 |
| 20260509122003 | 50 | 0 | 0.0 | 0.0 | 0.00 | 0.00 | 0.00 | 89 | 1019.2 |
| 20260509121524 | 50 | 338 | 0.0 | 1.0 | 0.00 | 0.00 | 0.00 | 89 | 1019.1 |
| 20260509121003 | 50 | 333 | 0.0 | 2.0 | 0.00 | 0.00 | 0.00 | 90 | 1019.0 |
| 20260509120503 | 50 | 340 | 0.0 | 2.0 | 0.00 | 0.00 | 0.00 | 90 | 1018.9 |
| 20260509120003 | 50 | 336 | 1.0 | 2.0 | 0.00 | 0.00 | 0.00 | 90 | 1019.0 |
| 20260509115503 | 50 | 331 | 1.0 | 4.0 | 0.00 | 0.00 | 0.00 | 90 | 1018.9 |
| 20260509114503 | 50 | 6 | 0.0 | 2.0 | 0.00 | 0.00 | 0.00 | 89 | 1019.1 |
| 20260509114003 | 50 | 0 | 0.0 | 0.0 | 0.00 | 0.00 | 0.00 | 89 | 1019.1 |
| 20260509113503 | 50 | 0 | 0.0 | 0.0 | 0.00 | 0.00 | 0.00 | 88 | 1019.1 |
| 20260509113003 | 50 | 0 | 0.0 | 0.0 | 0.00 | 0.00 | 0.00 | 88 | 1019.2 |
| 20260509112503 | 50 | 351 | 0.0 | 2.0 | 0.00 | 0.00 | 0.00 | 88 | 1019.2 |
| 20260509112003 | 51 | 323 | 0.0 | 2.0 | 0.00 | 0.00 | 0.00 | 87 | 1019.3 |
| 20260509111503 | 51 | 324 | 0.0 | 2.0 | 0.00 | 0.00 | 0.00 | 87 | 1019.5 |
| 20260509111003 | 51 | 331 | 0.0 | 2.0 | 0.00 | 0.00 | 0.00 | 87 | 1019.6 |
| 20260509110524 | 51 | 332 | 0.0 | 2.0 | 0.00 | 0.00 | 0.00 | 87 | 1019.6 |
| 20260509110003 | 51 | 339 | 0.0 | 1.0 | 0.00 | 0.00 | 0.00 | 86 | 1019.7 |
| 20260509105503 | 51 | 330 | 0.0 | 3.0 | 0.00 | 0.00 | 0.00 | 86 | 1019.6 |
| 20260509105003 | 52 | 320 | 0.0 | 3.0 | 0.00 | 0.00 | 0.00 | 86 | 1019.7 |
| 20260509104503 | 52 | 290 | 0.0 | 1.0 | 0.00 | 0.00 | 0.00 | 86 | 1019.6 |
| 20260509104003 | 52 | 321 | 0.0 | 1.0 | 0.00 | 0.00 | 0.00 | 86 | 1019.6 |
| 20260509103524 | 52 | 327 | 1.0 | 4.0 | 0.00 | 0.00 | 0.00 | 86 | 1019.6 |
| 20260509103025 | 52 | 325 | 1.0 | 5.0 | 0.00 | 0.00 | 0.00 | 86 | 1019.5 |
| 20260509102503 | 52 | 322 | 1.0 | 5.0 | 0.00 | 0.00 | 0.00 | 86 | 1019.5 |
| 20260509102003 | 52 | 0 | 0.0 | 0.0 | 0.00 | 0.00 | 0.00 | 85 | 1019.5 |
| 20260509101502 | 52 | 301 | 0.0 | 2.0 | 0.00 | 0.00 | 0.00 | 85 | 1019.4 |
| 20260509101003 | 52 | 322 | 1.0 | 5.0 | 0.00 | 0.00 | 0.00 | 85 | 1019.5 |
| 20260509100503 | 52 | 326 | 2.0 | 5.0 | 0.00 | 0.00 | 0.00 | 85 | 1019.5 |
| 20260509100024 | 52 | 329 | 1.0 | 5.0 | 0.00 | 0.00 | 0.00 | 85 | 1019.6 |
| 20260509095524 | 53 | 330 | 0.0 | 5.0 | 0.00 | 0.00 | 0.00 | 85 | 1019.6 |
| 20260509095003 | 53 | 332 | 1.0 | 4.0 | 0.00 | 0.00 | 0.00 | 84 | 1019.6 |
| 20260509094524 | 53 | 328 | 1.0 | 4.0 | 0.00 | 0.00 | 0.00 | 84 | 1019.6 |
| 20260509094004 | 53 | 328 | 1.0 | 4.0 | 0.00 | 0.00 | 0.00 | 84 | 1019.6 |
| 20260509093503 | 53 | 331 | 1.0 | 7.0 | 0.00 | 0.00 | 0.00 | 84 | 1019.7 |
| 20260509093003 | 53 | 333 | 2.0 | 7.0 | 0.00 | 0.00 | 0.00 | 84 | 1019.7 |
| 20260509092524 | 53 | 334 | 1.0 | 5.0 | 0.00 | 0.00 | 0.00 | 84 | 1019.8 |
| 20260509092003 | 53 | 336 | 1.0 | 5.0 | 0.00 | 0.00 | 0.00 | 83 | 1019.8 |
| 20260509091503 | 53 | 347 | 0.0 | 4.0 | 0.00 | 0.00 | 0.00 | 82 | 1019.8 |
| 20260509091003 | 53 | 341 | 0.0 | 2.0 | 0.00 | 0.00 | 0.00 | 82 | 1019.8 |
| 20260509090503 | 54 | 331 | 0.0 | 2.0 | 0.00 | 0.00 | 0.00 | 81 | 1019.9 |
| 20260509090003 | 54 | 330 | 0.0 | 1.0 | 0.00 | 0.00 | 0.00 | 81 | 1019.9 |
| 20260509085503 | 54 | 338 | 1.0 | 3.0 | 0.00 | 0.00 | 0.00 | 81 | 1019.9 |
| 20260509085003 | 54 | 340 | 1.0 | 4.0 | 0.00 | 0.00 | 0.00 | 81 | 1020.0 |